Location: Fountain Hills
(33.6120°N, 111.7170°W)
Time: 03:19:23
(UTC-07:00)

Hamsat - Visible Passes

Search period start: 24 February 2017 00:00
Search period end: 06 March 2017 00:00
Orbit: 585 x 619 km, 97.6° (Epoch: 23 February)

Date Brightness Start Highest point End Pass type
(mag) Time Alt. Az. Time Alt. Az. Time Alt. Az.
26 Feb ? 04:19:58 10° NNE 04:20:02 10° NNE 04:20:02 10° NNE visible
27 Feb ? 04:31:41 10° NNE 04:32:10 13° NNE 04:32:10 13° NNE visible
28 Feb ? 04:43:29 10° N 04:44:18 16° N 04:44:18 16° N visible
01 Mar ? 04:55:22 10° N 04:56:26 17° N 04:56:26 17° N visible
02 Mar ? 05:07:19 10° N 05:08:35 18° NNW 05:08:35 18° NNW visible
03 Mar ? 05:19:23 10° NNW 05:20:43 18° NNW 05:20:43 18° NNW visible
04 Mar ? 03:55:39 10° NE 03:56:03 12° NE 03:56:03 12° NE visible
04 Mar ? 05:31:34 10° NNW 05:32:52 16° NW 05:32:52 16° NW visible
05 Mar ? 04:07:08 10° NNE 04:08:11 16° NE 04:08:11 16° NE visible
05 Mar ? 05:43:58 10° NNW 05:45:00 13° NW 05:45:00 13° NW visible
